Weather reports worldwide

Advertisment
Ciudad Real, Spain (8348): temperature & dewpoint: 20.09.2018 05:00:00 - 26.09.2018 05:00:00 (CEST)Ciudad Real, Spain (8348): wind speed: 20.09.2018 05:00:00 - 26.09.2018 05:00:00 (CEST)Ciudad Real, Spain (8348): wind direction: 20.09.2018 05:00:00 - 26.09.2018 05:00:00 (CEST)Ciudad Real, Spain (8348): reduced air pressure: 20.09.2018 05:00:00 - 26.09.2018 05:00:00 (CEST)Ciudad Real, Spain (8348): visibility: 20.09.2018 05:00:00 - 26.09.2018 05:00:00 (CEST)Ciudad Real, Spain (8348): precipitation: 20.09.2018 05:00:00 - 26.09.2018 05:00:00 (CEST)
Date & Time tt [°C] td [°C] ff [km/h] ff [kn] dd ppp [hPa] vv [km] rr [mm]
26.09.2018 05:00:00 18,5 15,6 5 3 NE 1022,5 20 -
26.09.2018 04:00:00 19,0 15,5 5 3 NE 1022,2 20 0,0
26.09.2018 03:00:00 19,5 15,6 8 4 NE 1022,0 20 0,0
26.09.2018 02:00:00 20,1 15,7 8 4 NE 1021,7 20 -
26.09.2018 01:00:00 20,7 15,7 11 6 NE 1021,4 20 0,0
26.09.2018 00:00:00 21,8 15,4 8 4 NE 1020,7 20 0,0
25.09.2018 23:00:00 23,8 15,6 13 7 NE 1019,5 20 -
25.09.2018 22:00:00 26,8 14,2 11 6 ENE 1018,2 20 0,0
25.09.2018 21:00:00 27,9 8,7 5 3 N 1017,1 20 0,0
25.09.2018 20:00:00 29,4 9,5 0 0 N 1016,3 20 -
25.09.2018 19:00:00 31,1 9,3 2 1 N 1015,8 20 0,0
25.09.2018 18:00:00 31,8 9,3 4 2 ENE 1015,8 20 0,0
25.09.2018 17:00:00 32,9 9,0 5 3 NNW 1015,7 20 -
25.09.2018 16:00:00 33,1 11,0 5 3 S 1016,1 20 0,0
25.09.2018 15:00:00 32,3 12,5 4 2 NW 1017,0 20 0,0
25.09.2018 14:00:00 30,9 13,7 4 2 SE 1018,3 2,0 -
25.09.2018 13:00:00 28,8 13,9 4 2 ENE 1019,4 20 0,0
25.09.2018 12:00:00 25,7 15,1 4 2 N 1020,4 20 0,0
25.09.2018 11:00:00 23,1 14,6 8 4 NE 1021,0 20 -
25.09.2018 10:00:00 19,6 15,0 9 5 ENE 1021,6 19 0,0
25.09.2018 09:00:00 17,6 14,3 5 3 ENE 1021,8 19 0,0
25.09.2018 08:00:00 17,7 14,0 5 3 E 1021,1 20 -
25.09.2018 07:00:00 - - - - - - - -
25.09.2018 06:00:00 - - - - - - - -
25.09.2018 05:00:00 - - - - - - - -
25.09.2018 04:00:00 - - - - - - - -
25.09.2018 03:00:00 - - - - - - - -
25.09.2018 02:00:00 - - - - - - - -
25.09.2018 01:00:00 - - - - - - - -
25.09.2018 00:00:00 - - - - - - - -
24.09.2018 23:00:00 - - - - - - - -
24.09.2018 22:00:00 - - - - - - - -
24.09.2018 21:00:00 - - - - - - - -
24.09.2018 20:00:00 30,1 9,0 5 3 E 1016,6 20 -
24.09.2018 19:00:00 31,6 9,2 5 3 ESE 1016,1 20 0,0
24.09.2018 18:00:00 32,5 8,0 4 2 WNW 1016,1 20 0,0
24.09.2018 17:00:00 33,3 8,7 8 4 N 1016,4 20 -
24.09.2018 16:00:00 33,6 9,6 8 4 ENE 1017,0 20 0,0
24.09.2018 15:00:00 32,9 10,9 5 3 NE 1017,9 20 0,0
24.09.2018 14:00:00 31,0 12,4 9 5 ENE 1019,3 20 -
24.09.2018 13:00:00 29,3 12,7 13 7 ENE 1020,2 20 0,0
24.09.2018 12:00:00 27,0 11,9 13 7 E 1021,0 19 0,0
24.09.2018 11:00:00 24,4 11,0 15 8 ENE 1021,7 20 -
24.09.2018 10:00:00 20,9 9,5 9 5 E 1022,0 20 0,0
24.09.2018 09:00:00 18,3 9,4 8 4 E 1022,3 17 0,0
24.09.2018 08:00:00 17,5 10,6 4 2 NE 1022,0 20 -
24.09.2018 07:00:00 18,4 9,7 4 2 E 1021,4 20 0,0
24.09.2018 06:00:00 19,3 10,3 4 2 SE 1021,0 20 0,0
24.09.2018 05:00:00 20,2 11,1 4 2 NW 1020,9 20 -
24.09.2018 04:00:00 21,0 10,2 5 3 NW 1020,9 20 0,0
24.09.2018 03:00:00 21,7 9,9 5 3 NNE 1021,3 20 0,0
24.09.2018 02:00:00 22,0 10,5 5 3 SE 1021,1 20 -
24.09.2018 01:00:00 22,8 10,9 4 2 NNE 1020,8 20 0,0
24.09.2018 00:00:00 23,7 10,7 4 2 NNE 1020,6 20 0,0
23.09.2018 23:00:00 24,9 9,6 4 2 NNE 1020,2 20 -
23.09.2018 22:00:00 26,1 9,0 2 1 NE 1019,6 20 0,0
23.09.2018 21:00:00 28,1 9,4 4 2 E 1018,7 19 0,0
23.09.2018 20:00:00 30,4 9,3 5 3 E 1017,9 20 -
23.09.2018 19:00:00 32,0 8,9 5 3 ENE 1017,5 20 0,0
23.09.2018 18:00:00 32,8 9,6 8 4 NE 1017,2 20 0,0
23.09.2018 17:00:00 33,6 9,6 9 5 E 1017,4 20 -
23.09.2018 16:00:00 34,6 8,4 5 3 SE 1017,7 20 0,0
23.09.2018 15:00:00 33,8 9,8 5 3 NNE 1018,6 20 0,0
23.09.2018 14:00:00 33,6 11,4 5 3 SE 1019,4 20 -
23.09.2018 13:00:00 31,2 12,5 5 3 E 1020,4 20 0,0
23.09.2018 12:00:00 27,9 11,9 2 1 E 1021,8 20 0,0
23.09.2018 11:00:00 24,3 11,9 2 1 E 1022,7 20 -
23.09.2018 10:00:00 19,7 11,2 2 1 NE 1023,5 20 0,0
23.09.2018 09:00:00 18,0 11,3 4 2 NNE 1023,5 20 0,0
23.09.2018 08:00:00 18,1 11,6 4 2 NNE 1023,0 20 -
23.09.2018 07:00:00 18,5 11,8 2 1 E 1022,5 20 0,0
23.09.2018 06:00:00 19,1 11,6 2 1 E 1022,2 20 0,0
23.09.2018 05:00:00 19,6 11,6 4 2 NNE 1022,2 20 -
23.09.2018 04:00:00 20,2 11,4 2 1 ENE 1022,2 20 0,0
23.09.2018 03:00:00 21,0 12,2 2 1 N 1022,1 20 0,0
23.09.2018 02:00:00 22,0 12,0 2 1 E 1022,1 20 -
23.09.2018 01:00:00 22,7 12,0 4 2 ENE 1021,9 20 0,0
23.09.2018 00:00:00 23,2 10,6 4 2 NE 1021,8 20 0,0
22.09.2018 23:00:00 24,5 10,7 2 1 NNW 1021,2 20 -
22.09.2018 22:00:00 25,9 10,5 2 1 NE 1020,5 20 0,0
22.09.2018 21:00:00 27,7 10,0 4 2 ENE 1019,7 20 0,0
22.09.2018 20:00:00 30,0 10,0 8 4 ENE 1018,8 20 -
22.09.2018 19:00:00 31,3 9,5 8 4 E 1018,3 20 0,0
22.09.2018 18:00:00 32,2 9,7 5 3 NE 1018,0 20 0,0
22.09.2018 17:00:00 33,2 9,9 5 3 NE 1018,1 20 -
22.09.2018 16:00:00 33,4 10,7 8 4 N 1018,5 20 0,0
22.09.2018 15:00:00 33,0 10,9 4 2 NNE 1019,2 20 0,0
22.09.2018 14:00:00 32,0 12,8 4 2 N 1019,8 20 -
22.09.2018 13:00:00 30,4 12,3 4 2 NE 1020,7 20 0,0
22.09.2018 12:00:00 27,9 11,9 5 3 E 1021,3 20 0,0
22.09.2018 11:00:00 24,6 12,5 4 2 E 1021,9 20 -
22.09.2018 10:00:00 20,2 11,7 5 3 E 1022,7 20 0,0
22.09.2018 09:00:00 18,2 12,4 4 2 NNE 1022,6 19 0,0
22.09.2018 08:00:00 18,0 11,8 2 1 N 1022,1 20 -
22.09.2018 07:00:00 18,8 11,6 2 1 E 1021,3 20 0,0
22.09.2018 06:00:00 19,0 11,1 2 1 ESE 1020,7 20 0,0
22.09.2018 05:00:00 19,8 10,2 4 2 ENE 1020,2 20 -
22.09.2018 04:00:00 20,4 10,8 0 0 N 1020,2 20 0,0
22.09.2018 03:00:00 21,4 10,5 0 0 N 1020,2 20 0,0
22.09.2018 02:00:00 22,8 10,9 4 2 W 1019,7 20 -
22.09.2018 01:00:00 24,5 10,0 2 1 WNW 1019,1 20 0,0
22.09.2018 00:00:00 26,1 9,9 5 3 NW 1018,6 20 0,0
21.09.2018 23:00:00 26,4 9,7 9 5 NW 1018,2 20 -
21.09.2018 22:00:00 25,9 12,0 2 1 NE 1017,6 20 0,0
21.09.2018 21:00:00 27,5 11,9 2 1 N 1016,7 20 0,0
21.09.2018 20:00:00 29,3 11,4 5 3 NE 1015,8 20 -
21.09.2018 19:00:00 30,7 11,1 8 4 E 1014,9 20 0,0
21.09.2018 18:00:00 30,9 11,3 5 3 NE 1014,9 19 0,0
21.09.2018 17:00:00 31,0 10,9 4 2 NNW 1014,9 20 -
21.09.2018 16:00:00 31,8 10,5 8 4 NNW 1015,0 20 0,0
21.09.2018 15:00:00 33,2 11,1 5 3 S 1015,3 20 0,0
21.09.2018 14:00:00 31,4 12,7 5 3 NE 1016,3 20 -
21.09.2018 13:00:00 30,3 13,1 4 2 ESE 1017,0 20 0,0
21.09.2018 12:00:00 28,0 14,6 5 3 NNW 1017,8 19 0,0
21.09.2018 11:00:00 25,0 13,9 4 2 NW 1018,4 20 -
21.09.2018 10:00:00 21,0 13,2 2 1 ESE 1018,7 18 0,0
21.09.2018 09:00:00 18,0 12,7 4 2 SW 1019,2 11 0,0
21.09.2018 08:00:00 17,9 11,7 2 1 NNE 1018,9 20 -
21.09.2018 07:00:00 18,4 11,7 2 1 WNW 1018,2 20 0,0
21.09.2018 06:00:00 19,2 11,7 4 2 SW 1017,6 20 0,0
21.09.2018 05:00:00 19,0 11,3 4 2 SW 1017,9 20 -
21.09.2018 04:00:00 19,9 11,6 2 1 N 1017,6 20 0,0
21.09.2018 03:00:00 21,0 11,9 2 1 WSW 1017,6 20 0,0
21.09.2018 02:00:00 21,6 11,0 4 2 SSW 1017,5 20 -
21.09.2018 01:00:00 22,5 11,2 4 2 SSW 1017,4 20 0,0
21.09.2018 00:00:00 23,8 11,8 2 1 W 1017,0 19 0,0
20.09.2018 23:00:00 24,7 10,9 5 3 WSW 1016,8 20 -
20.09.2018 22:00:00 26,0 11,0 8 4 W 1016,3 20 0,0
20.09.2018 21:00:00 27,5 11,1 8 4 WSW 1015,5 20 0,0
20.09.2018 20:00:00 28,4 10,6 4 2 W 1015,0 20 -
20.09.2018 19:00:00 29,5 10,6 4 2 S 1014,8 19 0,0
20.09.2018 18:00:00 30,8 10,7 8 4 S 1014,4 19 0,0
20.09.2018 17:00:00 31,0 11,4 5 3 ESE 1014,8 20 -
20.09.2018 16:00:00 31,8 9,9 8 4 ESE 1015,2 18 0,0
20.09.2018 15:00:00 32,1 12,3 4 2 E 1015,8 20 0,0
20.09.2018 14:00:00 31,0 12,8 8 4 E 1016,9 20 -
20.09.2018 13:00:00 29,1 14,1 4 2 W 1018,1 20 0,0
20.09.2018 12:00:00 26,8 14,5 2 1 E 1018,9 17 0,0
20.09.2018 11:00:00 22,7 14,5 4 2 SE 1020,0 20 -
20.09.2018 10:00:00 18,2 13,9 4 2 NNE 1021,1 20 0,0
20.09.2018 09:00:00 16,9 13,6 4 2 NNE 1021,3 19 0,0
20.09.2018 08:00:00 16,5 12,8 2 1 NNE 1020,9 20 -
20.09.2018 07:00:00 17,3 13,4 2 1 NNE 1020,5 20 0,0
20.09.2018 06:00:00 17,8 13,7 2 1 NNE 1020,3 20 0,0
20.09.2018 05:00:00 18,3 13,4 2 1 E 1020,2 20 -

tt = temperature
td = dewpoint
ff = wind speed
dd = wind direction
ppp = reduced air pressure
vv = visibility
rr = precipitation

Next stations